Regional Weather Roundup
Issued by NWS

Home | Current Version | Previous Version | Graphics & Text | Print | Product List | Glossary Off
Versions: 1 2 3 4 5 6 7 8 9 10 11 12 13 14 15 16 17 18 19 20 21 22 23 24 25 26 27 28 29 30 31 32 33 34 35 36 37 38 39 40 41 42 43 44 45 46 47 48 49 50

000
ASUS43 KMPX 260701
RWRMN
WEATHER ROUNDUP FOR MINNESOTA
NATIONAL WEATHER SERVICE TWIN CITIES/CHANHASSEN MN
200 AM CDT TUE JUL 26 2016


NOTE: "FAIR" INDICATES FEW OR NO CLOUDS BELOW 12,000 FEET WITH NO
SIGNIFICANT WEATHER AND/OR OBSTRUCTIONS TO VISIBILITY. N/A MEANS
CURRENT SKY AND/OR WEATHER CONDITIONS ARE NOT AVAILABLE.

MNZ060>063-068>070-260800-
   Twin Cities Metro

CITY           SKY/WX    TMP DP  RH WIND       PRES   REMARKS
TWIN CITIES    CLEAR     75  65  70 SW3       30.04F
ST PAUL        CLEAR     71  67  87 CALM      30.04S
CRYSTAL        CLEAR     71  63  75 S5        30.02F
BLAINE         CLEAR     72  64  78 S5        30.04S
LAKEVILLE      CLEAR     64  64 100 CALM      30.05S
EDEN PRAIRIE   CLEAR     71  66  84 SW6       30.04S
LAKEVILLE      CLEAR     64  64 100 CALM      30.05S
SOUTH ST PAUL  CLEAR     72  64  78 CALM      30.04S
LAKE ELMO      FAIR      66  64  94 CALM      30.05F
$$
MNZ001>005-007-008-013>017-022>024-027-028-260800-
   Northwest Minnesota

CITY           SKY/WX    TMP DP  RH WIND       PRES   REMARKS
HALLOCK        CLEAR     66  64  94 E6        29.93F
ROSEAU         CLEAR     63  57  82 CALM      29.96S HAZE
WARROAD        CLEAR     64  61  88 CALM      29.97S
THIEF RVR FALL CLEAR     69  65  86 NE7       29.95F
CROOKSTON      CLEAR     72  66  83 E8        29.93F
FOSSTON        CLOUDY    70  63  78 S10       29.95F
DETROIT LAKES  CLEAR     72  64  78 S6        29.98S
MOORHEAD       CLEAR     72  66  83 S8        29.94R
PARK RAPIDS    MOCLDY    71  64  78 S5        29.99S
MAHNOMEN       PTSUNNY   71  64  79 S8        29.95S
$$
MNZ006-009>011-018-025>026-260800-
   North Central Minnesota

CITY           SKY/WX    TMP DP  RH WIND       PRES   REMARKS
BAUDETTE       CLOUDY    64  62  93 CALM      29.97S
FLAG ISLAND    CLEAR     72  63  73 CALM      29.95S
INTL FALLS     MOCLDY    61  58  90 CALM      29.97S
WASKISH        LGT RAIN  68  66  94 SE3       29.96F
BIG FORK       PTCLDY    64  63  94 CALM      29.98F
LONGVILLE      MOCLDY    72  66  83 SW5       29.99S
GRAND RAPIDS   MOCLDY    69  64  84 S7        30.02S
ORR            CLOUDY    63  57  82 CALM      29.97S
COOK           PTCLDY    63  61  94 CALM      29.99S
WALKER         PTSUNNY   72  64  77 SW7       29.98S
$$
MNZ012-019>021-037-260800-
   Northeast Minnesota

CITY           SKY/WX    TMP DP  RH WIND       PRES   REMARKS
DULUTH         CLEAR     67  63  87 W8        30.01S
ELY            CLEAR     61  57  88 CALM      30.00S
HIBBING        CLEAR     58  58 100 CALM      30.00S
EVELETH        CLEAR     60  59  97 CALM      30.02R
DULUTH HARBOR  CLEAR     72  66  83 SW10      29.98S
TWO HARBORS    CLEAR     72  66  83 W3        29.97S
SILVER BAY     CLEAR     70  63  78 CALM      29.97S
GRAND MARAIS     N/A     61  57  87 W5        29.95R
G MARAIS ARPRT CLEAR     57  54  88 CALM      30.01R
$$
MNZ029>031-032-039>041-046>048-054>057-064-260800-
   West Central Minnesota

CITY           SKY/WX    TMP DP  RH WIND       PRES   REMARKS
FERGUS FALLS   CLEAR     73  63  68 S9        29.98S
MORRIS         CLEAR     68  64  88 S8        29.99S
ALEXANDRIA     CLOUDY    74  64  71 S12       30.03S
ELBOW LAKE     FAIR      69  64  82 S12       29.99S
WADENA         PTCLDY    70  63  78 S6        29.99F
GLENWOOD       CLEAR     70  64  83 S9        30.03S
APPLETON       CLEAR     73  63  68 S9        30.00S
BENSON         CLEAR     70  63  78 SW7       30.01F
ORTONVILLE     CLEAR     68  63  83 S6        29.99F
MADISON        CLEAR     70  63  78 S7        30.01S
WILLMAR        FAIR      72  64  78 CALM      30.05S
$$
MNZ033>034-036-042>043-049>051-058-059-260800-
   Central Minnesota

CITY           SKY/WX    TMP DP  RH WIND       PRES   REMARKS
ST CLOUD       PTCLDY    68  67  96 S5        30.03S
SAUK CENTRE    PTSUNNY   66  64  93 S3        30.03S
PAYNESVILLE    CLEAR     70  64  81 S7        30.04S
AITKIN         MOCLDY    70  63  78 CALM      30.00S
PINE RIVER     MOCLDY    66  66 100 CALM      30.03F
BRAINERD       PTCLDY    71  66  84 S7        30.01S
STAPLES        MOCLDY    68  63  83 S5        30.00F
LONG PRAIRIE   MOCLDY    70  64  83 S6        30.03S
LITTLE FALLS   PTCLDY    68  63  83 CALM      30.02S
LITCHFIELD     CLEAR     72  66  83 CALM      30.04F
BUFFALO        PTCLDY    71  64  77 S3        30.05S
MAPLE LAKE     CLEAR     71  67  88 S3        30.05S
HUTCHINSON     PTCLDY    70  67  91 CALM      30.06S
$$
MNZ037-044-045-052-053-260800-
   East Central Minnesota

CITY           SKY/WX    TMP DP  RH WIND       PRES   REMARKS
PRINCETON      CLEAR     70  66  88 S3        30.03S
MORA           CLEAR     64  63  94 CALM      30.04S
CAMBRIDGE      CLEAR     72  63  73 S5        30.01F
RUSH CITY      PTCLDY    66  64  91 CALM      30.03S
MOOSE LAKE     CLEAR     63  61  94 CALM      30.00S FOG
HINCKLEY       FAIR      63  63 100 CALM      30.02F
CLOQUET        CLEAR     70  63  78 SW7       30.01F
MCGREGOR       CLEAR     66  64  94 CALM      30.02S
$$
MNZ071>073-080-081-089-090-097-098-260800-
   Southwest Minnesota

CITY           SKY/WX    TMP DP  RH WIND       PRES   REMARKS
MONTEVIDEO     PTCLDY    70  63  78 SW8       30.04S
GRANITE FALLS  CLOUDY    68  66  92 S7        30.05S
CANBY          CLEAR     74  63  68 SW8       30.03F
MARSHALL       CLEAR     69  64  84 S7        30.05S
REDWOOD FALLS  CLOUDY    70  64  81 S9        30.05S
OLIVIA         CLOUDY    70  64  83 S5        30.04S
PIPESTONE      PTCLDY    66  63  88 S7        30.09S
WINDOM         CLEAR     70  64  83 S5        30.08F
WORTHINGTON    CLEAR     69  63  81 S7        30.10S
JACKSON        CLEAR     68  63  83 S6        30.10S
TRACY          CLEAR     72  66  83 SW9       30.07S
SLAYTON        CLEAR     67  63  88 SW5       30.10S
$$
MNZ065>067-074>077-082>085-091>093-260800-
   South Central Minnesota

CITY           SKY/WX    TMP DP  RH WIND       PRES   REMARKS
MANKATO        CLEAR     70  63  78 S6        30.07S
NEW ULM        CLEAR     70  66  88 SW6       30.06S
ST JAMES       CLEAR     64  61  88 CALM      30.08S
FAIRMONT       CLEAR     68  63  83 S7        30.07F
GLENCOE        CLEAR     70  68  92 CALM      30.05S
FARIBAULT      CLEAR     64  63  94 CALM      30.07S
OWATONNA       CLEAR     66  63  88 CALM      30.08S
WASECA         CLEAR     64  61  88 S3        30.09S
ALBERT LEA     CLEAR     66  66 100 CALM      30.08F
$$
MNZ078>079-086>088-094>096-260800-
   Southeast Minnesota

CITY           SKY/WX    TMP DP  RH WIND       PRES   REMARKS
ROCHESTER      CLEAR     67  64  90 SW6       30.09S
RED WING       PTCLDY    66  64  94 CALM      30.04S
STANTON        CLEAR     66  63  88 CALM      30.05S
DODGE CENTER   CLEAR     64  61  88 SW5       30.09S
WINONA         PTCLDY    68  66  94 CALM      30.06S
AUSTIN         CLEAR     66  63  88 CALM      30.08F
PRESTON        CLEAR     66  62  86 CALM      30.09S
$$
ABBREVIATIONS USED IN REMARKS
   TC - TEMPERATURES IN CELSIUS
  WCI - WIND CHILL INDEX
   HX - HEAT INDEX
  VSB - VISIBILITY
$$



USA.gov is the U.S. government's official web portal to all federal, state and local government web resources and services.